Victoria, British Columbia

12:51 AM PDT on June 24, 2017 (GMT -0700)
Victoria International

Weather History for CYYJ - December, 2011

Change the Weather History Date:

Friday, December 9, 2011

  Actual Average Record
Temperature  
Mean Temperature 35 °F -  
Max Temperature 43 °F 44 °F 60 °F (2014)
Min Temperature 27 °F 33 °F 19 °F (2013)
Degree Days  
Heating Degree Days 30    
Moisture  
Dew Point 31 °F    
Average Humidity 92    
Maximum Humidity 100    
Minimum Humidity 76    
Precipitation  
Precipitation 0.00 in 0.19 in - ()
Sea Level Pressure  
Sea Level Pressure 30.29 in    
Wind  
Wind Speed 4 mph ()    
Max Wind Speed 7 mph    
Max Gust Speed -    
Visibility 18.4 miles    
Events      
Averages and records for this station are not official NWS values.
T = Trace of Precipitation, MM = Missing Value Source: Averaged Metar Reports

Daily Weather History Graph

Daily Weather History Graph

Search for Another Location

Airport or City:

Trip Planner

Search our weather history database for the weather conditions in past years. The results will help you decide how hot, cold, wet, or windy it might be!

Date:

Astronomy

Dec. 09, 2011 Rise Set
Actual Time 7:54 AM PST 4:17 PM PST
Civil Twilight 7:17 AM PST 4:54 PM PST
Nautical Twilight 6:37 AM PST 5:34 PM PST
Astronomical Twilight 5:59 AM PST 6:12 PM PST
Moon 3:44 PM PST (12/9) 7:07 AM PST (12/9)
Length of Visible Light 9h 37m
Length of Day
8h 23m
Waxing Gibbous, 99% of the Moon is Illuminated
Dec 9
Waxing Gibbous
Dec 10
Full
Dec 17
Last Quarter
Dec 24
New
Dec 31
First Quarter

Hourly Weather History & Observations

Time (PST) Temp. Windchill Dew Point Humidity Pressure Visibility Wind Dir Wind Speed Gust Speed Precip Events Conditions
12:00 AM 30.2 °F 25.4 °F 28.4 °F 93% 30.43 in 30.0 mi West 4.6 mph - N/A   Partly Cloudy
1:00 AM 28.4 °F 24.6 °F 28.4 °F 100% 30.42 in 30.0 mi WNW 3.5 mph - N/A   Partly Cloudy
1:32 AM 28.4 °F 24.6 °F - N/A% - 30.0 mi WNW 3.5 mph - N/A   Mostly Cloudy
2:00 AM 30.2 °F 25.4 °F 28.4 °F 93% 30.41 in 30.0 mi WNW 4.6 mph - N/A   Mostly Cloudy
2:36 AM 28.4 °F 23.3 °F - N/A% - 30.0 mi WNW 4.6 mph - N/A   Scattered Clouds
3:00 AM 28.4 °F 23.3 °F 28.4 °F 100% 30.41 in 20.0 mi West 4.6 mph - N/A   Mostly Cloudy
4:00 AM 32 °F - 31 °F 97% 30.39 in 19 mi WNW 3.5 mph - -   Mostly Cloudy
4:00 AM 32.0 °F 28.7 °F 32.0 °F 100% 30.39 in 20.0 mi NW 3.5 mph - N/A   Mostly Cloudy
5:00 AM 33.8 °F 29.6 °F 32.0 °F 93% 30.38 in 20.0 mi WNW 4.6 mph - N/A   Overcast
6:00 AM 35.6 °F 30.7 °F 32.0 °F 87% 30.36 in 20.0 mi West 5.8 mph - N/A   Overcast
6:25 AM 35.6 °F 29.9 °F - N/A% - 20.0 mi WNW 6.9 mph - N/A   Overcast
7:00 AM 33.8 °F 27.7 °F 32.0 °F 93% 30.36 in 20.0 mi West 6.9 mph - N/A   Overcast
8:00 AM 33.8 °F 28.6 °F 32.0 °F 93% 30.36 in 20.0 mi NW 5.8 mph - N/A   Mostly Cloudy
9:00 AM 33.8 °F 27.7 °F 32.0 °F 93% 30.35 in 20.0 mi West 6.9 mph - N/A   Mostly Cloudy
9:20 AM 33.8 °F 27.7 °F - N/A% - 20.0 mi West 6.9 mph - N/A   Mostly Cloudy
10:00 AM 35 °F - 33 °F 87% 30.35 in 19 mi West 6.9 mph - -   Mostly Cloudy
10:00 AM 35.6 °F 30.7 °F 32.0 °F 87% 30.35 in 20.0 mi West 5.8 mph - N/A   Mostly Cloudy
11:00 AM 37.4 °F 34.9 °F 33.8 °F 87% 30.34 in 30.0 mi West 3.5 mph - N/A   Partly Cloudy
12:00 PM 39.2 °F 37.0 °F 35.6 °F 87% 30.31 in 30.0 mi West 3.5 mph - N/A   Partly Cloudy
1:00 PM 41.0 °F 39.0 °F 33.8 °F 76% 30.28 in 30.0 mi West 3.5 mph - N/A   Partly Cloudy
2:00 PM 42.8 °F - 35.6 °F 76% 30.25 in 30.0 mi West 2.3 mph - N/A   Partly Cloudy
3:00 PM 42.8 °F 40.1 °F 35.6 °F 76% 30.23 in 30.0 mi NE 4.6 mph - N/A   Partly Cloudy
4:00 PM 36 °F - 33 °F 83% 30.23 in 28 mi Calm Calm - -   Scattered Clouds
4:00 PM 35.6 °F - 32.0 °F 87% 30.22 in 30.0 mi Calm Calm - N/A   Partly Cloudy
5:00 PM 32.0 °F 27.5 °F 30.2 °F 93% 30.21 in 30.0 mi SW 4.6 mph - N/A   Partly Cloudy
6:00 PM 32.0 °F 28.7 °F 30.2 °F 93% 30.19 in 30.0 mi WSW 3.5 mph - N/A   Partly Cloudy
7:00 PM 30.2 °F 26.7 °F 30.2 °F 100% 30.18 in 30.0 mi West 3.5 mph - N/A   Partly Cloudy
8:00 PM 32.0 °F 25.6 °F 30.2 °F 93% 30.17 in 30.0 mi WSW 6.9 mph - N/A   Partly Cloudy
9:00 PM 30.2 °F 25.4 °F 30.2 °F 100% 30.16 in 15.0 mi West 4.6 mph - N/A   Partly Cloudy
10:00 PM 30 °F - 29 °F 96% 30.14 in 15 mi SW 3.5 mph - -   Clear
10:00 PM 30.2 °F 26.7 °F 30.2 °F 100% 30.14 in 15.0 mi SW 3.5 mph - N/A   Partly Cloudy
11:00 PM 28.4 °F 24.6 °F 28.4 °F 100% 30.15 in 12.0 mi WNW 3.5 mph - N/A   Partly Cloudy